Location: Aressy
(43.2833°N, 0.3167°W)
Time: 21:52:12
(UTC+00:00)

X-37B - Pass Details

Date: 28 January 2021
Orbit: 383 x 391 km, 45.0° (Epoch: 27 February)

Event Time Altitude Azimuth Distance (km) Brightness Sun altitude
Rises 17:43:10 0° 281° (W) 2,271 5.7 -6.8°
Reaches altitude 10° 17:45:15 10° 284° (WNW) 1,417 4.4 -7.1°
Maximum altitude 17:48:26 67° 8° (N) 424 0.7 -7.7°
Enters shadow 17:51:36 10° 92° (E) 1,415 2.8 -8.2°
